User: anonymous   Login
Location: Unspecified
(0.0000°N, 0.0000°E)
Time: 14:46:21
(UTC+00:00)
Language:

PRISMA - Orbit

View from above orbital plane
View from above orbital plane
View from above satellite
View from above satellite

Ground track
Ground track

The orbit data is extracted from the following two-line orbital elements,

1 36599U 10028B   17206.21480832 +.00000045 +00000-0 +21088-4 0  9999
2 36599 098.3811 053.8826 0054787 207.8358 151.9896 14.55936102376146
Epoch (UTC): 25 July 2017 05:09:19
Eccentricity: 0.0054787
inclination: 98.3811°
perigee height: 667 km
apogee height: 745 km
right ascension of ascending node: 53.8826°
argument of perigee: 207.8358°
revolutions per day: 14.55936102
mean anomaly at epoch: 151.9896°
orbit number at epoch: 37614

The dashed part of the orbit path shows where the satellite is in the earth's shadow,  

DLR